Date,TemperatureHighF,TemperatureAvgF,TemperatureLowF,DewpointHighF,DewpointAvgF,DewpointLowF,HumidityHigh,HumidityAvg,HumidityLow,PressureMaxIn,PressureMinIn,WindSpeedMaxMPH,WindSpeedAvgMPH,GustSpeedMaxMPH,PrecipitationSumIn
2013-1-1,33.4,20.7,1.8,29.0,14.2,0.0,96,74,60,29.47,29.21,18,3,20,0.00
2013-1-2,20.8,6.1,-3.0,18.0,1.8,-6.0,94,77,55,29.74,29.41,18,3,20,0.00
2013-1-3,13.6,-0.2,-10.5,8.0,-3.6,-13.0,90,78,50,29.76,29.50,6,1,6,0.00
2013-1-4,33.9,19.0,-1.2,28.0,13.2,-6.0,94,78,65,29.50,29.31,14,2,17,0.00
2013-1-5,33.8,28.5,15.4,28.0,18.7,11.0,85,66,47,29.79,29.35,26,4,26,0.00
2013-1-6,32.9,23.1,14.5,29.0,20.8,14.0,97,88,78,29.74,29.46,7,0,8,0.01
2013-1-7,33.6,23.3,7.7,29.0,17.8,4.0,98,78,43,29.91,29.49,20,3,21,0.00
2013-1-8,41.3,18.3,3.8,28.0,14.9,4.0,96,85,51,29.92,29.78,6,0,6,0.04
2013-1-9,43.3,24.4,10.6,33.0,21.3,11.0,97,86,56,29.93,29.50,16,2,19,0.06
2013-1-10,40.8,36.2,26.0,35.0,25.3,23.0,88,65,50,30.10,29.56,23,4,28,0.14
2013-1-11,35.7,28.3,20.0,33.0,25.9,18.0,100,90,65,30.09,29.72,6,1,7,0.12
2013-1-12,40.1,36.0,32.7,40.0,36.2,33.0,100,100,98,29.75,29.66,6,0,6,0.04
2013-1-13,43.3,37.8,33.7,43.0,38.0,35.0,100,100,100,29.69,29.51,6,1,8,0.01
2013-1-14,55.2,41.5,31.5,53.0,36.5,26.0,100,84,49,29.83,29.41,17,2,18,0.01
2013-1-15,35.5,30.3,26.8,32.0,25.7,21.0,97,83,61,29.88,29.78,5,0,5,0.00
2013-1-16,30.1,28.6,26.2,31.0,27.5,23.0,100,94,79,29.79,29.34,6,1,6,0.00
2013-1-17,36.1,23.5,12.6,35.0,19.8,4.0,100,84,56,29.68,29.34,18,2,22,0.00
2013-1-18,21.7,10.4,0.1,14.0,2.6,-6.0,92,66,37,29.90,29.63,17,2,17,0.00
2013-1-19,37.4,26.7,8.2,28.0,19.8,4.0,89,74,54,29.82,29.34,14,2,15,0.03
2013-1-20,42.7,32.9,19.5,33.0,20.3,0.0,88,60,38,29.48,29.05,28,5,31,0.25
2013-1-21,24.0,16.9,6.0,18.0,6.9,0.0,91,63,39,29.60,29.32,11,2,14,0.00
2013-1-22,20.1,12.8,0.0,18.0,7.7,-6.0,96,78,45,29.59,29.31,20,3,22,0.00
2013-1-23,6.7,-0.6,-10.7,0.0,-8.9,-13.0,86,65,38,29.69,29.57,20,3,20,0.00
2013-1-24,13.0,-1.5,-16.1,4.0,-9.3,-13.0,88,61,33,29.82,29.63,22,2,23,0.00
2013-1-25,18.5,7.2,-4.7,4.0,-3.0,-6.0,82,57,30,29.88,29.61,11,2,14,0.00
2013-1-26,17.6,9.7,1.4,8.0,0.6,-6.0,88,64,32,29.79,29.58,20,3,22,0.00
2013-1-27,23.4,11.0,2.0,8.0,-1.1,-6.0,89,58,25,30.02,29.79,21,3,21,0.00
2013-1-28,16.8,9.6,1.5,16.0,6.2,-6.0,94,80,53,30.02,29.58,6,1,6,0.00
2013-1-29,31.4,23.1,16.7,31.0,21.3,16.0,99,92,82,29.75,29.59,8,2,9,0.00
2013-1-30,49.1,39.8,31.0,49.0,39.9,31.0,100,100,99,29.64,28.93,13,2,13,0.42
2013-1-31,54.0,38.3,23.8,54.0,30.9,11.0,100,76,43,29.09,28.42,35,5,37,0.69
2013-2-1,25.9,21.4,15.3,18.0,9.3,8.0,76,56,47,29.61,29.08,20,4,25,0.00
2013-2-2,22.2,16.7,8.4,18.0,10.7,4.0,92,74,51,29.73,29.57,14,2,15,0.00
2013-2-3,26.8,19.2,13.1,21.0,14.3,11.0,95,80,55,29.58,29.27,8,2,9,0.00
2013-2-4,26.2,19.3,12.8,21.0,7.5,0.0,94,60,30,29.44,29.25,25,3,26,0.00
2013-2-5,27.6,14.5,2.8,11.0,3.9,0.0,81,59,33,29.58,29.44,8,2,8,0.00
2013-2-6,33.6,23.2,12.8,28.0,13.2,-6.0,89,62,39,29.87,29.43,16,4,18,0.00
2013-2-7,22.7,14.2,6.8,4.0,-1.1,-6.0,63,45,32,30.09,29.86,15,4,15,0.00
2013-2-8,23.1,19.6,16.7,18.0,13.3,0.0,95,76,36,30.00,29.39,17,3,17,0.00
2013-2-9,20.4,14.7,5.9,16.0,7.8,0.0,94,71,53,29.85,29.38,32,9,32,0.01
2013-2-10,34.4,10.0,-9.1,16.0,3.1,-6.0,92,71,27,30.02,29.84,5,0,5,0.06
2013-2-11,29.6,19.1,4.7,31.0,17.3,4.0,100,90,77,29.87,29.16,6,0,6,0.00
2013-2-12,40.4,34.0,27.4,33.0,28.6,23.0,100,81,64,29.41,29.16,18,3,21,0.20
2013-2-13,38.7,30.2,20.7,31.0,22.0,18.0,94,71,46,29.41,29.30,11,1,11,0.04
2013-2-14,39.2,29.1,23.8,26.0,21.9,18.0,88,73,43,29.52,29.28,14,1,16,0.02
2013-2-15,47.4,32.7,23.3,31.0,24.2,18.0,89,72,41,29.51,29.43,20,2,21,0.01
2013-2-16,32.8,27.8,21.7,28.0,18.8,4.0,96,69,39,29.53,29.39,19,4,22,0.00
2013-2-17,21.6,16.1,12.0,8.0,4.5,0.0,65,54,45,29.39,29.08,31,9,34,0.01
2013-2-18,27.5,16.9,10.0,4.0,-0.5,-6.0,63,46,22,29.67,29.31,22,4,24,0.00
2013-2-19,39.4,24.3,8.5,32.0,14.7,0.0,98,65,35,29.71,29.13,15,2,15,0.09
2013-2-20,32.3,27.5,21.7,32.0,21.9,14.0,99,78,57,29.30,29.11,16,2,20,0.01
2013-2-21,24.7,20.6,14.7,21.0,13.6,11.0,88,72,57,29.86,29.30,23,5,24,0.00
2013-2-22,37.7,29.8,24.5,28.0,21.8,18.0,91,69,49,29.97,29.83,14,2,15,0.04
2013-2-23,33.5,31.6,27.6,32.0,27.2,21.0,99,82,68,29.83,29.50,11,1,13,0.02
2013-2-24,36.6,32.7,30.1,37.0,32.9,31.0,100,99,97,29.50,29.33,5,0,5,0.29
2013-2-25,36.8,32.1,28.3,37.0,31.8,28.0,100,98,85,29.79,29.48,8,1,9,0.09
2013-2-26,40.2,33.9,29.1,39.0,32.1,29.0,100,92,81,29.90,29.72,9,1,10,0.00
2013-2-27,35.6,33.7,31.4,33.0,31.7,28.0,98,92,77,29.73,29.21,16,4,17,0.19
2013-2-28,42.9,35.6,31.0,43.0,34.9,31.0,100,97,85,29.21,29.12,9,1,9,0.02
2013-3-1,39.0,32.9,27.3,33.0,28.8,26.0,100,85,64,29.29,29.13,17,4,19,0.00
2013-3-2,36.5,32.0,26.3,28.0,26.0,23.0,90,78,63,29.28,29.23,26,6,26,0.00
2013-3-3,35.6,29.4,24.6,29.0,24.7,23.0,91,80,69,29.26,29.17,16,4,17,0.02
2013-3-4,33.3,28.7,25.3,26.0,22.7,21.0,84,76,65,29.40,29.21,14,4,18,0.00
2013-3-5,41.9,31.5,25.4,29.0,25.4,21.0,90,76,56,29.65,29.40,20,3,21,0.01
2013-3-6,37.5,34.5,30.3,31.0,27.8,23.0,92,76,62,29.77,29.64,25,5,30,0.00
2013-3-7,37.9,33.8,30.0,29.0,24.6,23.0,90,68,59,29.75,29.65,18,6,20,0.00
2013-3-8,42.8,33.2,26.4,29.0,25.5,21.0,96,74,44,29.83,29.63,19,5,23,0.05
2013-3-9,54.1,33.9,18.0,35.0,22.5,16.0,100,69,23,29.90,29.80,11,1,12,0.00
2013-3-10,54.6,37.6,20.7,36.0,25.4,18.0,98,66,28,29.95,29.77,14,2,15,0.00
2013-3-11,45.8,40.9,33.8,37.0,31.4,28.0,83,69,55,29.81,29.63,14,3,20,0.00
2013-3-12,49.5,45.1,41.2,49.0,43.4,38.0,100,94,78,29.64,29.26,12,2,12,0.96
2013-3-13,44.4,37.9,27.2,41.0,32.8,24.0,100,82,55,29.38,29.30,15,2,15,0.00
2013-3-14,32.5,26.7,17.9,29.0,17.3,8.0,98,66,45,29.43,29.26,25,5,25,0.01
2013-3-15,35.1,25.0,13.8,29.0,14.7,4.0,94,63,35,29.44,29.15,18,4,22,0.00
2013-3-16,31.0,26.1,19.4,23.0,15.0,11.0,86,62,41,29.45,29.26,16,3,16,0.01
2013-3-17,28.5,22.6,14.5,23.0,9.1,0.0,91,55,33,29.88,29.44,29,5,30,0.01
2013-3-18,34.5,22.6,7.3,18.0,6.8,0.0,90,51,25,30.00,29.75,12,1,15,0.00
2013-3-19,32.5,28.2,26.0,29.0,25.9,21.0,97,90,70,29.75,29.28,16,2,17,0.00
2013-3-20,34.0,28.5,23.8,29.0,24.1,18.0,97,82,59,29.30,29.23,18,3,20,0.12
2013-3-21,39.5,27.3,12.1,28.0,16.0,11.0,99,65,31,29.33,29.17,14,2,14,0.12
2013-3-22,36.7,27.4,15.5,28.0,19.3,14.0,96,72,44,29.29,29.18,16,2,16,0.04
2013-3-23,38.9,31.5,23.5,28.0,21.4,18.0,89,65,43,29.35,29.21,23,4,23,0.00
2013-3-24,41.2,34.2,25.5,26.0,23.3,21.0,86,63,45,29.42,29.34,23,4,23,0.00
2013-3-25,43.8,32.5,21.0,31.0,23.6,18.0,96,72,46,29.37,29.12,17,2,17,0.00
2013-3-26,45.9,37.0,28.1,31.0,24.0,18.0,89,60,33,29.37,29.16,19,4,22,0.00
2013-3-27,47.7,36.6,23.0,36.0,26.4,21.0,98,69,39,29.49,29.34,28,4,28,0.00
2013-3-28,48.4,38.4,31.8,39.0,32.4,28.0,99,80,46,29.61,29.48,16,2,21,0.00
2013-3-29,48.9,38.9,29.2,40.0,31.6,28.0,97,77,48,29.64,29.57,17,2,20,0.00
2013-3-30,50.9,38.7,26.7,38.0,23.6,14.0,100,61,22,29.67,29.60,21,3,24,0.00
2013-3-31,54.8,39.5,21.7,38.0,24.9,18.0,97,61,26,29.68,29.33,23,4,26,0.06
2013-4-1,48.0,38.0,29.5,46.0,32.3,14.0,100,81,45,29.34,29.09,19,2,20,0.37
2013-4-2,34.7,29.6,24.6,14.0,11.4,8.0,54,44,31,29.44,29.32,22,5,28,0.00
2013-4-3,41.4,32.5,24.7,16.0,11.1,4.0,57,39,21,29.72,29.43,26,4,28,0.00
2013-4-4,52.4,37.9,25.1,24.0,15.3,8.0,76,40,21,29.83,29.51,19,3,21,0.00
2013-4-5,52.1,39.1,29.3,33.0,24.4,16.0,81,57,29,29.51,29.29,22,5,24,0.00
2013-4-6,40.6,31.2,23.8,16.0,8.4,4.0,54,37,19,29.86,29.49,25,6,28,0.01
2013-4-7,56.3,40.7,26.9,36.0,22.2,11.0,69,47,29,29.85,29.46,27,7,32,0.02
2013-4-8,58.9,46.3,36.4,38.0,32.6,26.0,89,61,31,29.69,29.49,20,4,20,0.00
2013-4-9,58.1,47.3,41.5,49.0,40.8,32.0,98,80,49,29.62,29.45,15,3,16,0.18
2013-4-10,49.8,44.4,40.8,47.0,43.3,40.0,100,96,85,29.57,29.47,10,2,10,0.62
2013-4-11,43.9,40.8,37.2,43.0,27.9,16.0,100,64,33,29.75,29.46,18,4,20,0.01
2013-4-12,37.2,32.8,30.1,32.0,26.9,16.0,93,80,42,29.74,29.43,19,3,20,0.05
2013-4-13,52.7,39.5,31.8,43.0,34.7,31.0,99,84,48,29.49,29.35,11,1,12,0.47
2013-4-14,47.7,39.4,30.2,39.0,32.9,28.0,100,78,47,29.80,29.47,20,2,23,0.01
2013-4-15,60.0,42.4,25.7,40.0,31.5,26.0,100,70,34,29.95,29.79,12,2,14,0.00
2013-4-16,60.3,49.6,37.4,52.0,41.3,31.0,98,74,53,29.90,29.55,24,5,28,0.05
2013-4-17,57.6,48.9,36.3,51.0,33.7,24.0,98,60,31,29.93,29.61,25,5,25,0.01
2013-4-18,61.1,46.8,28.7,38.0,30.9,26.0,96,58,35,29.99,29.64,24,5,26,0.00
2013-4-19,71.9,61.5,51.6,60.5,53.3,38.0,91,76,55,29.64,29.09,30,8,39,0.17
2013-4-20,53.6,45.0,35.8,51.0,32.5,16.0,97,65,34,29.82,29.22,23,4,24,0.20
2013-4-21,48.6,38.1,28.9,21.0,17.0,14.0,68,42,24,30.25,29.81,21,5,21,0.00
2013-4-22,53.8,39.2,24.2,31.0,21.4,16.0,91,53,23,30.32,30.14,19,2,20,0.00
2013-4-23,41.4,36.8,28.1,37.0,31.9,26.0,93,81,70,30.16,29.75,12,2,13,0.00
2013-4-24,74.8,55.4,39.0,46.0,39.8,36.0,90,61,26,29.75,29.28,23,4,25,0.00
2013-4-25,60.7,50.1,34.9,48.0,31.1,23.0,72,49,27,29.87,29.28,28,5,28,0.00
2013-4-26,56.9,43.9,27.9,37.0,29.5,24.0,94,60,33,30.00,29.87,14,2,15,0.00
2013-4-27,65.3,48.4,31.1,41.0,30.6,18.0,98,58,19,30.02,29.84,12,2,14,0.00
2013-4-28,72.6,52.9,30.9,39.0,32.4,28.0,96,52,21,29.92,29.71,16,2,18,0.00
2013-4-29,68.3,56.0,42.1,46.0,37.0,35.0,88,51,30,29.82,29.70,18,4,21,0.00
2013-4-30,73.5,61.1,51.3,41.0,33.4,24.0,53,36,24,29.91,29.79,14,2,15,0.00
2013-5-1,77.1,58.8,38.6,41.0,30.3,18.0,89,41,12,30.03,29.91,13,2,14,0.00
2013-5-2,80.5,58.5,39.6,46.0,36.9,24.0,92,49,21,30.06,29.85,22,3,22,0.00
2013-5-3,69.1,54.8,36.9,42.0,36.1,26.0,91,52,31,30.11,29.91,14,2,15,0.00
2013-5-4,75.0,57.8,39.1,47.5,38.4,28.0,99,56,22,29.95,29.76,13,2,14,0.00
2013-5-5,75.1,57.0,36.5,41.0,33.5,29.0,91,47,19,29.89,29.72,14,2,15,0.00
2013-5-6,77.5,58.1,37.6,46.0,32.2,11.0,96,48,8,29.83,29.63,13,2,14,0.00
2013-5-7,84.3,62.3,40.2,49.0,39.2,31.0,95,50,16,29.75,29.58,12,2,13,0.00
2013-5-8,75.5,60.8,47.2,64.5,54.6,45.0,99,82,43,29.77,29.62,18,2,23,0.40
2013-5-9,69.4,61.0,55.8,64.0,59.1,54.5,100,94,63,29.62,29.46,12,1,13,0.28
2013-5-10,75.1,61.8,53.0,68.0,56.8,53.0,100,86,53,29.56,29.44,13,2,14,0.00
2013-5-11,68.6,61.1,57.1,62.5,59.5,57.0,100,95,80,29.44,29.21,17,3,20,0.21
2013-5-12,64.5,55.4,43.5,58.0,44.3,24.0,100,70,32,29.38,29.17,17,2,19,0.01
2013-5-13,49.9,44.5,40.3,36.0,29.5,26.0,81,55,43,29.63,29.37,18,4,22,0.00
2013-5-14,57.7,45.4,33.8,43.0,30.9,24.0,97,61,29,29.67,29.55,23,3,24,0.00
2013-5-15,62.4,46.3,29.2,50.5,38.6,28.0,100,79,30,29.62,29.23,23,3,24,0.13
2013-5-16,75.8,59.1,45.1,62.0,42.6,32.0,100,65,21,29.44,29.18,28,3,31,0.01
2013-5-17,64.4,53.5,44.0,42.0,38.2,33.0,85,59,33,29.81,29.44,20,4,23,0.00
2013-5-18,74.7,55.2,36.6,47.0,38.5,32.0,100,62,22,29.90,29.76,12,2,12,0.00
2013-5-19,69.9,55.4,43.1,54.5,48.4,42.0,99,80,46,29.91,29.75,18,3,23,0.20
2013-5-20,71.2,61.6,54.3,68.5,59.5,54.5,100,93,73,29.75,29.54,10,2,11,0.03
2013-5-21,79.8,63.0,51.9,71.7,59.5,50.0,100,90,60,29.69,29.41,16,3,19,0.70
2013-5-22,73.6,58.9,51.3,67.5,57.2,50.0,100,94,75,29.55,29.41,13,2,15,0.26
2013-5-23,76.4,65.1,55.9,71.3,62.2,55.0,100,91,73,29.46,29.32,19,4,20,0.00
2013-5-24,66.7,55.1,45.0,64.5,52.9,42.0,100,92,80,29.51,29.22,22,5,25,0.50
2013-5-25,45.1,42.2,35.0,44.0,40.8,33.0,99,94,87,29.50,29.40,29,8,32,1.02
2013-5-26,52.2,44.3,36.6,42.0,39.0,36.0,98,83,62,29.66,29.35,24,6,27,0.11
2013-5-27,67.5,50.9,34.8,53.5,37.0,32.0,100,67,27,29.77,29.65,22,3,24,0.00
2013-5-28,73.0,56.0,35.6,47.5,40.9,35.0,100,64,25,29.85,29.69,12,2,12,0.00
2013-5-29,60.1,56.5,52.4,60.0,54.9,47.0,100,95,75,29.73,29.56,5,1,7,0.14
2013-5-30,88.1,71.0,58.2,75.5,62.5,58.0,100,79,41,29.66,29.57,11,2,14,0.00
2013-5-31,92.2,74.4,57.9,70.0,61.5,56.0,100,71,31,29.70,29.49,19,2,20,0.00
2013-6-1,91.6,76.4,60.8,69.7,63.9,57.0,100,70,33,29.54,29.39,20,2,20,0.00
2013-6-2,85.0,70.0,63.4,84.0,67.2,63.0,100,92,59,29.42,29.22,26,2,28,1.02
2013-6-3,77.0,66.6,51.9,70.5,57.2,47.5,100,76,40,29.44,29.34,19,4,21,0.01
2013-6-4,66.3,56.1,44.0,50.0,43.0,39.0,94,64,42,29.69,29.43,25,4,27,0.00
2013-6-5,72.3,58.1,43.2,54.0,42.2,35.0,100,62,27,29.80,29.66,14,2,16,0.00
2013-6-6,73.6,61.9,50.7,56.5,47.8,39.0,97,63,34,29.78,29.65,16,2,16,0.05
2013-6-7,56.8,52.4,50.6,56.5,51.6,49.0,100,97,93,29.68,29.47,14,2,14,0.76
2013-6-8,69.7,60.0,51.5,63.5,56.2,52.0,100,89,66,29.61,29.33,13,2,15,0.30
2013-6-9,76.9,64.8,54.8,61.5,54.7,49.0,100,73,39,29.78,29.61,18,2,18,0.00
2013-6-10,73.4,59.3,48.6,63.0,55.1,49.0,100,88,52,29.82,29.60,9,1,10,0.20
2013-6-11,58.9,56.0,53.7,59.0,55.8,53.0,100,99,96,29.60,29.18,10,1,16,1.04
2013-6-12,67.0,59.1,52.0,56.0,53.8,50.5,100,84,59,29.43,29.18,26,5,27,0.02
2013-6-13,63.4,55.6,50.0,59.0,54.0,50.0,100,95,77,29.43,29.30,10,2,10,0.12
2013-6-14,77.1,63.0,52.5,66.3,53.0,43.0,100,75,30,29.41,29.28,20,3,20,0.01
2013-6-15,75.9,62.6,47.5,56.5,46.8,38.0,100,63,29,29.53,29.41,21,3,22,0.00
2013-6-16,71.8,58.7,46.0,61.0,53.8,45.0,100,86,53,29.53,29.29,12,2,16,0.04
2013-6-17,78.8,63.9,52.1,71.3,58.8,52.0,100,86,46,29.51,29.36,18,2,18,0.03
2013-6-18,61.6,58.1,52.1,61.5,56.8,52.0,100,96,85,29.58,29.49,10,2,11,0.12
2013-6-19,72.4,59.0,47.0,62.5,47.8,40.0,100,72,33,29.77,29.56,14,2,17,0.00
2013-6-20,79.8,60.5,42.4,54.0,46.3,38.0,100,66,24,29.87,29.75,12,2,12,0.00
2013-6-21,84.0,65.8,47.2,59.0,51.7,46.0,100,67,30,29.84,29.76,14,2,16,0.00
2013-6-22,82.9,67.6,54.0,66.3,60.2,53.0,99,79,48,29.82,29.66,12,2,19,0.04
2013-6-23,85.5,70.4,62.9,76.5,68.0,63.0,100,93,66,29.72,29.52,17,2,18,0.52
2013-6-24,90.8,72.8,63.5,80.8,68.0,60.5,100,88,48,29.59,29.48,25,2,25,0.08
2013-6-25,88.5,73.0,64.3,77.0,68.1,64.5,100,88,47,29.54,29.33,18,2,21,0.57
2013-6-26,73.0,68.1,64.4,73.0,68.0,64.5,100,100,93,29.43,29.34,7,1,8,0.46
2013-6-27,82.5,70.6,63.9,74.7,67.8,64.0,100,92,69,29.43,29.32,10,2,11,0.00
2013-6-28,79.9,66.8,59.3,76.0,64.9,59.0,100,94,77,29.34,29.04,16,2,16,1.11
2013-6-29,82.0,72.0,65.3,74.0,66.9,61.5,100,85,60,29.27,29.09,20,2,22,0.14
2013-6-30,85.5,73.2,63.1,71.7,66.3,63.0,100,81,55,29.41,29.27,11,2,12,0.00
2013-7-5,92.0,78.6,71.4,78.3,72.4,68.5,100,84,48,29.66,29.62,13,2,16,0.14
2013-7-6,87.5,77.1,67.0,79.7,69.7,63.5,100,81,47,29.67,29.57,14,2,14,0.04
2013-7-7,89.7,74.3,63.3,74.3,69.0,63.5,100,85,55,29.64,29.48,7,1,8,0.05
2013-7-8,81.5,72.0,68.9,80.3,71.3,69.0,100,98,76,29.65,29.52,14,2,14,0.39
2013-7-9,84.3,73.2,66.4,77.7,69.3,66.3,100,88,63,29.69,29.60,13,2,13,0.01
2013-7-10,77.5,71.7,68.3,76.8,70.3,66.7,100,96,88,29.63,29.35,11,2,11,0.77
2013-7-11,82.2,73.1,62.6,75.5,67.4,60.5,100,84,50,29.60,29.33,16,3,18,0.01
2013-7-12,86.3,69.8,56.7,66.3,60.5,56.5,100,76,41,29.80,29.59,8,2,8,0.00
2013-7-13,81.0,70.0,59.3,69.0,64.2,59.5,100,83,56,29.90,29.80,14,2,16,0.00
2013-7-14,88.3,75.2,66.7,73.0,69.7,66.7,100,85,56,29.91,29.79,10,2,11,0.00
2013-7-15,92.4,77.9,66.7,76.8,67.8,63.0,100,75,41,29.83,29.69,17,2,17,0.00
2013-7-16,89.5,77.4,64.9,72.3,67.3,64.0,100,74,47,29.79,29.72,9,2,9,0.00
2013-7-17,94.3,79.2,64.7,73.0,68.7,64.0,100,75,41,29.80,29.56,9,2,9,0.00
2013-7-18,92.3,76.5,69.8,74.0,70.9,69.0,100,86,49,29.63,29.52,9,2,9,0.02
2013-7-19,92.3,80.3,69.9,77.0,71.6,69.0,100,79,49,29.54,29.26,9,4,9,0.00
2013-7-22,78.1,72.9,62.6,69.0,64.3,57.0,89,75,70,29.64,29.51,9,3,9,0.00
2013-7-24,78.1,66.6,54.2,72.0,57.0,47.0,100,72,59,29.64,29.26,9,4,9,0.00
2013-7-25,74.6,61.4,47.9,60.0,52.1,46.0,97,74,50,29.72,29.61,9,2,9,0.00
2013-7-26,73.9,64.3,58.2,63.0,59.4,57.0,97,86,67,29.70,29.57,9,2,9,0.00
2013-7-27,83.8,67.8,54.5,66.0,59.9,54.0,100,80,45,29.67,29.54,9,2,9,0.00
2013-7-28,80.8,67.1,59.3,69.0,63.0,59.0,100,89,59,29.62,29.54,8,1,8,0.00
2013-8-2,79.9,77.2,69.4,74.0,60.5,53.0,100,59,39,29.43,29.36,16,3,16,0.00
2013-8-6,79.8,68.8,55.8,57.0,52.0,47.0,91,59,35,29.76,29.65,10,2,10,0.01
2013-8-7,78.2,65.4,52.7,63.0,56.4,51.0,99,76,48,29.76,29.62,15,3,15,0.00
2013-8-8,81.9,72.2,66.8,69.0,65.2,60.0,92,80,64,29.64,29.52,15,5,15,0.00
2013-8-14,70.6,63.1,51.0,60.0,53.2,50.0,96,71,57,29.55,29.31,18,4,23,0.01
2013-8-15,73.9,59.8,46.9,59.0,51.4,47.0,100,78,45,29.70,29.55,12,2,13,0.00
2013-8-16,78.5,61.8,49.5,63.0,54.0,49.0,100,80,43,29.80,29.68,15,2,18,0.00
2013-8-17,79.7,63.8,53.6,64.0,56.2,53.0,100,81,40,29.89,29.79,14,2,14,0.00
2013-8-18,78.6,63.6,52.9,64.0,58.3,52.0,100,85,58,29.88,29.67,6,1,6,0.00
2013-8-19,83.4,66.9,55.6,65.0,58.9,56.0,100,80,42,29.68,29.52,13,2,13,0.00
2013-8-20,83.0,64.5,57.9,67.0,60.3,58.0,100,89,48,29.68,29.59,10,2,12,0.00
2013-8-27,85.9,77.4,68.7,68.0,65.5,63.0,92,69,51,29.52,29.36,10,2,13,0.00
2013-8-28,87.8,72.2,65.1,69.0,65.0,60.0,98,81,44,29.54,29.37,20,2,20,0.04
2013-8-29,75.9,67.8,62.4,70.0,63.0,60.0,98,86,68,29.61,29.51,10,2,11,0.01
2013-8-30,86.5,71.7,63.4,68.0,63.7,60.0,96,79,46,29.57,29.32,11,2,12,0.00
2013-8-31,78.8,71.8,67.5,74.0,69.9,65.0,99,95,83,29.36,29.29,7,1,7,0.30
2013-9-1,86.5,75.0,70.0,76.0,70.0,66.0,100,87,57,29.41,29.32,8,1,8,0.00
2013-9-2,82.2,72.6,67.5,78.0,70.4,66.0,98,94,76,29.40,29.23,8,1,9,0.50
2013-9-3,75.1,68.3,61.5,74.0,64.0,57.0,100,88,65,29.36,29.25,10,2,10,0.00
2013-9-4,77.7,67.5,58.2,64.0,56.9,52.0,99,73,44,29.46,29.36,13,2,15,0.00
2013-9-5,66.1,58.7,43.3,60.0,47.6,35.0,98,71,34,29.72,29.40,23,4,24,0.11
2013-9-6,70.8,52.6,39.9,52.0,42.1,36.0,98,73,36,29.81,29.62,11,1,13,0.00
2013-9-7,68.4,56.3,45.4,56.0,50.2,44.0,98,82,53,29.62,29.39,11,2,13,0.00
2013-9-8,61.6,55.9,42.7,57.0,46.3,37.0,98,74,42,29.65,29.32,34,4,34,0.03
2013-9-9,69.8,53.2,38.6,51.0,44.7,38.0,98,76,43,29.78,29.63,12,2,12,0.00
2013-9-10,73.7,60.7,49.0,73.0,59.4,47.0,100,96,91,29.66,29.54,7,0,7,0.32
2013-9-11,92.4,77.0,67.7,81.0,70.2,66.0,100,83,47,29.61,29.44,28,2,37,0.52
2013-9-12,82.4,70.8,66.5,76.0,68.6,62.0,100,94,71,29.52,29.21,14,2,14,0.98
2013-9-13,67.0,62.8,54.9,67.0,61.0,52.0,100,95,87,29.37,29.16,18,3,18,0.37
2013-9-14,61.9,56.1,49.1,53.0,50.6,48.0,98,83,63,29.62,29.36,18,3,18,0.00
2013-9-15,70.6,55.9,45.5,56.0,49.3,45.0,100,82,42,29.71,29.57,13,2,15,0.00
2013-9-16,61.1,53.0,39.1,59.0,47.6,35.0,99,83,56,29.85,29.55,21,3,22,0.03
2013-9-17,68.3,47.4,33.9,48.0,39.8,33.0,99,79,43,30.01,29.85,7,1,7,0.00
2013-9-18,75.9,52.8,41.0,54.0,45.8,40.0,100,82,42,29.88,29.66,8,1,8,0.00
2013-9-19,79.5,56.2,44.7,57.0,49.2,44.0,100,82,33,29.72,29.57,6,1,6,0.00
2013-9-20,80.3,59.7,48.5,60.0,52.9,48.0,100,82,45,29.69,29.50,9,1,9,0.00
2013-9-21,73.4,62.1,50.4,63.0,56.0,50.0,99,83,48,29.54,29.18,23,4,23,0.01
2013-9-22,66.6,58.5,46.5,63.0,53.3,42.0,99,84,62,29.43,29.11,15,3,16,0.45
2013-9-23,53.7,47.1,42.2,44.0,39.8,38.0,96,77,58,29.58,29.42,20,4,21,0.00
2013-9-24,62.9,52.3,46.2,47.0,40.6,37.0,86,66,40,29.57,29.41,24,4,24,0.00
2013-9-25,64.0,54.5,44.0,54.0,47.2,43.0,99,78,55,29.57,29.45,18,3,18,0.00
2013-9-26,64.7,52.4,40.7,52.0,45.4,40.0,99,79,54,29.72,29.56,17,3,17,0.00
2013-9-27,71.8,55.2,45.8,54.0,49.7,45.0,98,84,51,29.85,29.71,6,1,6,0.00
2013-9-28,76.0,55.6,47.4,60.0,50.0,47.0,100,85,41,29.93,29.80,6,1,7,0.00
2013-9-29,73.3,54.9,46.4,59.0,50.0,45.0,100,86,49,29.83,29.63,9,1,9,0.00
2013-9-30,74.5,54.1,44.6,56.0,48.4,45.0,100,85,42,29.68,29.51,8,1,8,0.00
2013-10-1,77.1,56.7,46.2,57.0,51.4,45.0,100,86,48,29.57,29.40,8,1,8,0.00
2013-10-2,76.8,61.1,51.6,64.0,55.5,52.0,100,85,50,29.53,29.38,14,2,14,0.00
2013-10-3,76.8,58.5,47.8,63.0,50.6,44.0,100,80,35,29.66,29.52,7,1,7,0.00
2013-10-4,66.2,54.2,44.9,56.0,50.3,44.0,100,88,63,29.68,29.58,8,1,8,0.00
2013-10-5,63.4,58.4,55.9,56.0,52.6,50.0,93,82,66,29.70,29.61,7,1,7,0.00
2013-10-6,57.2,51.7,48.1,54.0,46.3,41.0,98,83,61,29.78,29.67,12,2,12,0.17
2013-10-7,70.5,58.2,50.8,66.0,56.7,50.0,100,95,85,29.68,29.21,29,2,35,0.60
2013-10-8,61.4,50.8,37.9,53.0,42.2,33.0,100,77,37,29.95,29.46,16,2,18,0.00
2013-10-9,66.2,44.9,35.1,48.0,39.1,35.0,100,84,43,30.06,29.91,10,1,10,0.00
2013-10-10,62.7,46.7,38.1,50.0,42.7,37.0,100,88,52,29.92,29.74,9,1,9,0.00
2013-10-11,68.0,51.2,43.3,56.0,46.8,42.0,99,87,58,29.76,29.67,5,1,5,0.00
2013-10-12,61.2,50.0,40.1,56.0,47.1,40.0,100,91,77,29.95,29.75,13,1,13,0.00
2013-10-13,64.6,51.4,41.8,53.0,45.6,41.0,100,83,53,30.00,29.90,13,1,13,0.00
2013-10-14,62.8,52.9,42.2,53.0,48.3,41.0,98,85,63,29.93,29.77,10,1,10,0.00
2013-10-15,64.7,57.8,53.2,56.0,53.4,51.0,97,86,70,29.83,29.70,7,1,7,0.00
2013-10-16,65.5,55.7,48.8,54.0,50.4,48.0,97,84,61,29.70,29.41,11,1,12,0.00
2013-10-17,69.9,57.1,50.0,59.0,48.9,44.0,98,77,42,29.42,29.25,12,1,12,0.11
2013-10-18,61.6,53.6,44.9,56.0,47.6,36.0,100,82,56,29.45,29.15,13,2,17,0.50
2013-10-19,63.4,49.6,36.3,51.0,41.4,35.0,99,76,49,29.51,29.25,13,2,15,0.00
2013-10-20,56.9,49.5,36.7,48.0,38.2,32.0,96,68,40,29.55,29.20,19,3,21,0.03
2013-10-21,63.1,46.0,33.1,47.0,39.3,33.0,99,80,45,29.65,29.46,15,1,15,0.00
2013-10-22,55.8,48.8,35.3,48.0,41.7,31.0,90,77,62,29.47,29.26,14,3,15,0.00
2013-10-23,52.2,40.5,31.9,39.0,33.9,31.0,97,78,49,29.33,29.15,8,1,8,0.00
2013-10-24,47.4,40.6,30.2,37.0,31.5,28.0,96,71,47,29.41,29.20,23,3,23,0.01
2013-10-25,45.4,36.9,30.8,40.0,29.8,24.0,99,77,44,29.66,29.41,18,2,21,0.00
2013-10-26,47.3,38.9,28.5,36.0,30.2,26.0,94,73,45,29.67,29.36,18,2,19,0.00
2013-10-27,52.3,41.0,29.4,38.0,31.6,26.0,91,71,40,29.58,29.31,15,2,21,0.00
2013-10-28,50.7,36.9,27.5,37.0,29.3,23.0,94,74,51,29.90,29.57,23,2,25,0.00
2013-10-29,47.9,31.0,20.1,35.0,22.7,16.0,98,73,30,30.01,29.89,8,1,8,0.00
2013-10-30,48.7,34.6,26.4,37.0,28.3,21.0,94,78,54,29.90,29.73,12,1,12,0.00
2013-10-31,57.1,41.2,29.5,56.0,40.0,29.0,98,96,91,29.78,29.24,15,2,16,0.21
2013-11-1,66.7,60.5,51.9,62.0,53.0,41.0,97,79,47,29.24,28.89,18,6,26,0.59
2013-11-2,59.2,48.0,37.9,50.0,41.3,32.0,99,79,53,29.38,29.16,18,2,23,0.00
2013-11-3,41.2,34.8,27.4,33.0,20.3,14.0,74,55,35,29.99,29.38,20,7,23,0.00
2013-11-4,40.2,28.7,20.3,29.0,18.0,14.0,94,65,36,30.22,29.99,12,2,14,0.00
2013-11-5,47.1,32.8,21.7,33.0,25.1,18.0,96,74,46,30.23,30.01,14,2,16,0.00
2013-11-6,57.6,45.2,31.2,44.0,37.3,28.0,94,75,58,30.01,29.49,19,4,19,0.00
2013-11-7,53.5,48.1,36.5,51.0,42.7,23.0,96,82,59,29.50,29.25,15,4,17,0.07
2013-11-8,39.7,33.4,25.8,35.0,27.3,23.0,94,78,57,29.62,29.38,12,1,12,0.03
2013-11-9,42.6,36.4,31.4,32.0,23.7,21.0,88,59,42,29.72,29.52,14,2,17,0.00
2013-11-10,44.6,37.3,31.9,42.0,36.0,31.0,99,95,88,29.52,29.26,13,1,14,0.16
2013-11-11,44.8,39.2,33.8,37.0,30.4,26.0,93,71,49,29.62,29.39,14,3,14,0.01
2013-11-12,42.3,30.0,26.3,36.0,20.4,14.0,90,66,52,29.75,29.39,19,5,24,0.03
2013-11-13,32.7,25.9,20.1,21.0,13.8,8.0,75,58,36,29.83,29.60,22,4,22,0.00
2013-11-14,46.7,32.1,24.9,29.0,24.7,21.0,93,73,49,29.62,29.56,17,1,18,0.00
2013-11-15,54.1,32.8,23.7,35.0,25.6,23.0,98,77,33,29.75,29.61,5,0,6,0.00
2013-11-16,60.6,38.6,28.1,37.0,28.5,23.0,93,70,28,29.85,29.72,6,1,6,0.00
2013-11-17,49.9,37.3,26.9,49.0,35.7,26.0,99,94,87,29.84,29.34,9,1,11,0.12
2013-11-18,60.1,51.4,41.1,54.0,43.7,31.0,98,77,45,29.34,28.99,25,4,25,0.49
2013-11-19,43.7,33.8,28.8,32.0,19.8,16.0,70,55,49,29.86,29.19,24,6,28,0.01
2013-11-20,39.1,28.3,20.5,18.0,16.3,14.0,82,61,34,30.18,29.86,14,3,16,0.00
2013-11-21,42.1,28.0,15.5,28.0,18.0,14.0,95,67,32,30.19,29.88,8,1,8,0.01
2013-11-22,34.4,32.2,29.4,35.0,29.3,21.0,99,88,65,29.89,29.34,6,1,6,0.10
2013-11-23,40.2,32.5,23.0,39.0,25.8,16.0,99,77,43,29.49,29.30,16,3,21,0.05
2013-11-24,23.0,18.5,13.5,16.0,5.7,-6.0,72,52,40,29.74,29.33,32,6,38,0.03
2013-11-25,28.5,18.7,5.4,16.0,5.0,-6.0,74,52,29,29.90,29.72,14,2,14,0.00
2013-11-26,34.5,29.9,26.4,31.0,25.2,14.0,95,82,56,29.83,29.59,12,1,12,0.02
2013-11-27,43.8,36.4,32.0,43.0,35.9,31.0,100,97,91,29.59,28.85,15,2,17,0.78
2013-11-28,33.2,23.4,11.2,32.0,16.2,8.0,93,72,47,29.95,29.01,13,1,15,0.00
2013-11-29,26.2,15.3,7.5,18.0,9.0,4.0,94,75,40,30.29,29.95,16,1,16,0.00
2013-11-30,27.7,17.8,4.3,16.0,10.1,0.0,93,70,47,30.34,29.92,12,1,12,0.00
2013-12-1,37.2,31.2,27.5,31.0,25.1,14.0,93,77,55,29.92,29.59,12,1,14,0.00
2013-12-2,37.4,33.2,29.9,33.0,31.2,29.0,96,91,82,29.60,29.46,7,1,7,0.00
2013-12-3,37.4,33.3,31.2,33.0,31.8,29.0,97,94,87,29.52,29.45,8,1,9,0.00
2013-12-4,42.1,32.0,25.3,32.0,26.2,23.0,97,79,51,29.73,29.51,11,1,11,0.00
2013-12-5,38.1,33.7,24.9,38.0,32.2,24.0,99,93,83,29.74,29.43,10,1,10,0.00
2013-12-6,42.3,38.4,33.6,42.0,36.9,31.0,100,94,80,29.70,29.42,8,1,9,0.41
2013-12-7,33.7,30.3,22.6,32.0,22.0,14.0,95,71,49,29.98,29.64,16,2,20,0.01
2013-12-8,29.5,24.8,21.0,18.0,14.4,11.0,87,62,48,30.11,29.97,11,2,11,0.00
2013-12-9,29.0,26.6,23.1,28.0,22.2,14.0,98,82,55,30.01,29.41,20,2,23,0.00
2013-12-10,33.7,28.2,21.9,29.0,22.2,11.0,98,77,51,29.48,29.30,13,2,15,0.00
2013-12-11,28.3,23.8,18.4,21.0,14.2,11.0,88,65,46,29.68,29.47,19,4,19,0.00
2013-12-12,21.1,13.9,4.9,14.0,5.8,0.0,88,67,37,29.82,29.51,15,3,15,0.00
2013-12-13,21.3,14.2,1.9,16.0,8.6,-6.0,87,71,61,29.97,29.43,17,4,17,0.00
2013-12-14,11.1,5.0,-1.9,8.0,-1.4,-6.0,89,70,50,30.15,29.71,11,2,11,0.00
2013-12-15,25.7,20.2,11.0,24.0,17.6,8.0,94,87,75,29.72,29.05,14,2,17,0.00
2013-12-16,22.2,15.7,0.1,18.0,8.0,-6.0,94,68,44,29.77,29.23,19,3,19,0.00
2013-12-17,9.5,0.1,-12.3,8.0,-3.1,-13.0,87,80,72,29.84,29.56,9,1,10,0.00
2013-12-18,29.7,16.3,6.9,21.0,13.0,4.0,95,84,63,29.57,29.46,6,1,6,0.08
2013-12-19,35.7,26.5,18.6,29.0,22.5,16.0,94,84,64,29.62,29.46,15,1,15,0.01
2013-12-20,39.9,33.4,30.0,35.0,31.3,28.0,98,91,74,29.64,29.45,6,0,6,0.15
2013-12-21,47.7,37.4,33.7,42.0,36.5,33.0,99,95,80,29.46,29.38,9,1,9,0.22
2013-12-22,43.2,38.7,35.1,43.0,38.6,35.0,100,99,98,29.54,29.22,12,1,14,0.09
2013-12-23,37.8,36.1,33.9,38.0,35.9,31.0,100,99,87,29.69,29.52,9,1,10,0.14
2013-12-24,34.0,26.1,12.0,31.0,18.5,8.0,86,70,48,29.80,29.61,20,3,20,0.00
2013-12-25,20.2,11.0,4.2,11.0,3.9,0.0,77,66,42,30.07,29.80,15,3,17,0.00
2013-12-26,26.6,20.7,16.1,24.0,17.2,8.0,95,84,60,29.97,29.63,12,1,13,0.00
2013-12-27,33.6,23.5,15.7,29.0,19.3,14.0,98,83,57,29.76,29.69,13,1,16,0.01
2013-12-28,34.1,26.8,16.3,31.0,24.2,14.0,97,89,76,29.70,29.52,8,1,9,0.02
2013-12-29,33.4,29.0,23.0,57.0,29.1,23.0,100,97,94,29.55,29.13,6,0,6,0.01
2013-12-30,36.4,24.7,3.8,35.0,21.3,0.0,100,85,64,29.75,29.13,21,3,21,0.02
2013-12-31,15.5,6.7,0.9,8.0,3.0,0.0,90,79,58,29.75,29.56,6,1,7,0.00
2014-1-1,20.1,10.1,2.6,16.0,5.8,0.0,95,78,52,29.94,29.66,17,2,20,0.00
2014-1-2,5.8,3.4,0.8,4.0,1.5,0.0,90,86,75,29.94,29.47,12,5,14,0.00